• Processing (Info)

  • MPEC 2013-V83 : 2013 VQ13

    The following Minor Planet Electronic Circular may be linked-to from your own Web pages, but must not otherwise be redistributed electronically.

    A form allowing access to any MPEC is at the bottom of this page.


    Read MPEC 2013-V82 Read MPEC 2013-V84


    M.P.E.C. 2013-V83                                Issued 2013 Nov. 12, 17:51 UT
    
         The Minor Planet Electronic Circulars contain information on unusual
             minor planets and routine data on comets.  They are published
       on behalf of Commission 20 of the International Astronomical Union by the
              Minor Planet Center, Smithsonian Astrophysical Observatory,
                              Cambridge, MA 02138, U.S.A.
    
                 Prepared using the Tamkin Foundation Computer Network
    
                                  MPC@CFA.HARVARD.EDU
                URL http://www.minorplanetcenter.net/    ISSN 1523-6714
    
                                       2013 VQ13
    
    Observations:
         K13V13Q* C2013 11 11.42517 02 56 09.06 +31 51 11.8          19.5 VqEV083G96
         K13V13Q  C2013 11 11.43200 02 56 04.60 +31 53 20.2          19.5 VqEV083G96
         K13V13Q  C2013 11 11.43882 02 56 00.11 +31 55 28.3          19.7 VqEV083G96
         K13V13Q  C2013 11 11.45481 02 55 49.63 +32 00 28.0          19.7 VqEV083G96
         K13V13Q  C2013 11 11.45712 02 55 48.15 +32 01 11.1          19.6 VqEV083G96
         K13V13Q  C2013 11 11.45942 02 55 46.62 +32 01 54.3          19.3 VqEV083G96
         K13V13Q  C2013 11 11.46172 02 55 45.15 +32 02 37.3          19.4 VqEV083G96
         K13V13Q  C2013 11 11.49367 02 55 24.49 +32 12 33.7          19.9 VqEV083G96
         K13V13Q  C2013 11 11.49596 02 55 23.03 +32 13 16.8          19.8 VqEV083G96
         K13V13Q  C2013 11 12.13280702 48 44.26 +35 30 48.7          19.7 RtEV083H01
         K13V13Q  C2013 11 12.14051302 48 38.94 +35 33 10.9          19.8 RtEV083H01
         K13V13Q  C2013 11 12.14753502 48 34.09 +35 35 20.3          19.6 RtEV083H01
         K13V13Q  C2013 11 12.15729002 48 27.32 +35 38 20.0          19.6 RtEV083H01
         K13V13Q  C2013 11 12.43245 02 45 12.95 +37 00 49.7          20.0 RoEV083926
         K13V13Q  C2013 11 12.43469 02 45 11.33 +37 01 29.1          20.4 RoEV083926
         K13V13Q  C2013 11 12.43692 02 45 09.83 +37 02 08.2          20.1 RoEV083926
    
    Observer details:
    926 Tenagra II Observatory.  Observers M. Schwartz, P. R. Holvorcem.  0.81-m
        f/7 Ritchey-Chretien + CCD.
    G96 Mt. Lemmon Survey.  Observer A. Boattini.  Measurers A. Boattini,
        E. J. Christensen, A. R. Gibbs, A. D. Grauer, R. E. Hill, J. A. Johnson,
        R. A. Kowalski, S. M. Larson, F. C. Shelly.  1.5-m reflector + CCD.
    H01 Magdalena Ridge Observatory, Socorro.  Observers W. H. Ryan, E. V. Ryan.
        Measurer W. H. Ryan.  2.4-m f/8.9 reflector + CCD.
    
    Orbital elements:
    2013 VQ13                                                Earth MOID = 0.0817 AU
    Epoch 2013 Nov. 4.0 TT = JDT 2456600.5                  MPC
    M 351.56351              (2000.0)            P               Q
    n   0.57807834     Peri.    9.57855     +0.56461322     -0.75516062
    a   1.4271784      Node    46.96852     +0.72388620     +0.25921951
    e   0.2507742      Incl.   27.10787     +0.39648541     +0.60211103
    P   1.70           H   24.3           G   0.15           U   7
    Residuals in seconds of arc
    131111 G96  0.2+  0.4-    131111 G96  0.1-  0.1+    131112 H01  0.0   0.1+
    131111 G96  0.5+  0.2-    131111 G96  0.1-  0.1-    131112 926  0.2+  0.0
    131111 G96  0.2+  0.0     131111 G96  0.1+  0.3+    131112 926  0.4-  0.1+
    131111 G96  0.3-  0.1+    131112 H01  0.0   0.1-    131112 926  0.3+  0.1+
    131111 G96  0.0   0.0     131112 H01  0.0   0.1-
    131111 G96  0.4-  0.2+    131112 H01  0.0   0.1-
    
    Ephemeris:
    2013 VQ13                a,e,i = 1.43, 0.25, 27                  q = 1.0693
    Date    TT    R. A. (2000) Decl.     Delta      r     Elong.  Phase     V
    2013 10 13    04 48 01.6 -41 01 13   0.2497  1.1108   110.7    57.2    23.6
    ...
    2013 10 28    04 24 37.5 -26 31 08   0.1368  1.0842   128.5    45.8    21.9
    ...
    2013 11 05    03 48 56.7 -02 04 08   0.09119 1.0752   155.5    22.5    20.3
    ...
    2013 11 11    03 00 37.3 +29 35 12   0.08279 1.0711   167.7    11.3    19.7
    2013 11 12    02 50 06.6 +34 50 21   0.08452 1.0707   162.3    16.3    20.0
    2013 11 13    02 38 49.4 +39 45 40   0.08708 1.0703   156.9    21.2    20.2
    ...
    2013 11 19    01 16 20.5 +60 11 15   0.1155  1.0693   132.2    43.2    21.4
    ...
    2013 11 27    23 18 53.9 +69 19 52   0.1703  1.0715   115.6    56.1    22.6
    ...
    2013 12 12    21 27 26.0 +71 28 14   0.2819  1.0867   103.8    61.7    23.9
    
    A. U. Tomatic                (C) Copyright 2013 MPC           M.P.E.C. 2013-V83
    

    Read MPEC 2013-V82 Read MPEC 2013-V84


    MPEC number:

    Enter an MPEC number in one of the following forms:

    • 1997-B01 (the full form)
    • J97B01 (the packed version of the full form)
    • B01 (the abbreviated form)